Hourly Data Report for April 03, 2018

KUGAARUK CLIMATE
NUNAVUT
Current Station Operator: ECCC - MSC

68°32'15.060" N
89°47'47.020" W
15.80 m
2303094
71407
NBB

Download Data

Hourly Data (April 2018)
Hourly Data Report for April 3, 2018
TIME
LST
Temp Definition
°C
Dew Point Definition
°C
Rel Hum Definition
%
Precip. Amount Definition
mm

Wind Dir Definition
10's deg

Wind Spd Definition
km/h
Visibility Definition
km
Stn Press Definition
kPa
Hmdx Definition


Wind Chill Definition


Weather Definition


00:00 -7.1 -8.5 89 0.0 3 22   101.46   -15 LegendNANA
01:00 -6.2 -7.6 90 0.0 9 27   101.41   -14 LegendNANA
02:00 -6.6 -8.1 89 0.2 7 36   101.41   -16 LegendNANA
03:00 -7.4 -9.0 89 0.2 8 32   101.45   -16 LegendNANA
04:00 -7.8 -9.5 88 0.3 6 33   101.50   -17 LegendNANA
05:00 -8.4 -10.3 86 0.6 5 29   101.51   -17 LegendNANA
06:00 -9.1 -11.1 85 0.0 3 13   101.55   -15 LegendNANA
07:00 -9.5 -11.9 83 0.0 1 24   101.59   -18 LegendNANA
08:00 -9.2 -11.7 82 0.0 6 24   101.61   -18 LegendNANA
09:00 -8.6 -11.6 79 0.0 5 22   101.66   -16 LegendNANA
10:00 -7.9 -11.1 78 0.0 5 26   101.68   -16 LegendNANA
11:00 -7.7 -10.8 78 0.0 7 17   101.77   -14 LegendNANA
12:00 -7.6 -10.7 79 0.0 4 16   101.84   -14 LegendNANA
13:00 -6.9 -9.8 80 0.0 4 18   101.90   -14 LegendNANA
14:00 -6.6 -9.6 79 0.0 6 11   101.97   -12 LegendNANA
15:00 -6.4 -9.1 82 0.0 7 10   102.04   -11 LegendNANA
16:00 -7.0 -10.3 77 0.0 10 5   102.14   -10 LegendNANA
17:00 -8.1 -11.0 79 0.0 24 12   102.21   -14 LegendNANA
18:00 -9.3 -12.0 81 0.0 23 16   102.27   -16 LegendNANA
19:00 -10.0 -13.0 79 0.0 20 10   102.34   -15 LegendNANA
20:00 -10.4 -13.8 76 0.0 7 7   102.38   -14 LegendNANA
21:00 -11.4 -14.6 77 0.0 27 12   102.44   -18 LegendNANA
22:00 -12.4 -15.6 77 0.0 28 8   102.47   -17 LegendNANA
23:00 -12.7 -15.9 77 0.0 26 11   102.50   -19 LegendNANA

Notes on Data Quality.

Legend

  • E = Estimated
  • M = Missing
  • NA = Not Available*
  • [empty] = Indicates an unobserved value
Date modified: